Location: Maiden
(35.5760°N, 81.2120°W)
Time: 01:35:47
(UTC-04:00)

Cosmos-2242 - Pass Details

Date: 14 June 2018
Orbit: 592 x 617 km, 82.5° (Epoch: 15 October)

Event Time Altitude Azimuth Distance (km) Brightness Sun altitude
Rises 23:31:09 0° 350° (N) 2,880 7.6 -25.2°
Reaches altitude 10° 23:33:23 10° 348° (NNW) 1,975 6.6 -25.4°
Enters shadow 23:37:25 66° 297° (WNW) 671 3.3 -25.8°
